Location: Hradec Kralove
(50.2170°N, 15.8330°E)
Time: 06:06:21
(UTC+01:00)

ISS - Visible Passes

Search period start: 19 January 2019 00:00
Search period end: 29 January 2019 00:00
Orbit: 404 x 411 km, 51.6° (Epoch: 19 January)

Date Brightness Start Highest point End Pass type
(mag) Time Alt. Az. Time Alt. Az. Time Alt. Az.
23 Jan -1.9 18:39:14 10° SSW 18:40:56 20° S 18:40:56 20° S visible
24 Jan -1.7 17:48:44 10° S 17:50:44 15° SE 17:51:51 13° ESE visible
24 Jan -1.2 19:23:31 10° WSW 19:24:35 19° SW 19:24:35 19° SW visible
25 Jan -3.2 18:32:18 10° SW 18:35:26 42° SSE 18:35:26 42° SSE visible
26 Jan -2.5 17:41:15 10° SSW 17:44:08 28° SSE 17:46:13 15° E visible
26 Jan -1.9 19:17:08 10° WSW 19:18:57 30° WSW 19:18:57 30° WSW visible
27 Jan -3.8 18:25:43 10° WSW 18:29:01 72° SSE 18:29:40 52° E visible
27 Jan -0.2 20:02:20 10° W 20:02:23 10° W 20:02:23 10° W visible
28 Jan -3.3 17:34:24 10° SW 17:37:37 50° SSE 17:40:21 13° E visible
28 Jan -2.4 19:10:50 10° W 19:13:04 39° WNW 19:13:04 39° WNW visible
